Other Surface Observations
Issued by NWS

Home | Current Version | Previous Version | Text Only | Print | Product List | Glossary On
Versions: 1 2 3 4 5 6 7 8 9 10 11 12 13 14 15 16 17 18 19 20 21 22 23 24 25 26 27 28 29 30 31 32 33 34 35 36 37 38 39 40 41 42 43 44 45 46 47 48 49 50
000
SXUS52 KTAE 312310
OSOTAE
OSOTAE
North Florida/South Alabama/Southwest Georgia Weather Roundup
National Weather Service Tallahassee Florida
700 PM EDT MON AUG 31 2015

Note: "fair" indicates few or no clouds below 12,000 feet with no
significant weather and/or obstructions to visibility.

!FLZ017-115-028-034-025-010000
...North Florida...

CITY           SKY/WX    TMP DP  RH WIND       PRES   REMARKS
TALLAHASSEE    MOSUNNY   91  69  48 E7        30.01S HX  96
APALACHICOLA   SUNNY     86  75  69 SE6       30.01R HX  95
PERRY          MOSUNNY   88  53  30 N6        30.02R
CROSS CITY       N/A     83  76  79 E5        30.02R HX  91
JACKSONVILLE   CLOUDY    80  77  90 E6        30.04S THUNDER
$$

!FLZ112-006-005-002-011-010000
...Florida Panhandle...

CITY           SKY/WX    TMP DP  RH WIND       PRES   REMARKS
MARIANNA       SUNNY     89  68  49 NE5       30.01S HX  93
BONIFAY        NOT AVBL
PANAMA CITY NW FAIR      91  65  41 NE7       29.99S HX  93
TYNDALL AFB    MOSUNNY   88  75  64 W7        30.00S HX  97
TYND DRONE APT FAIR      87  76  70 W6        30.00S HX  97
DE FUNIAK SPR  FAIR      90  66  45 N5        30.02S HX  92
EGLIN AFB      MOSUNNY   90  70  50 S6        30.00F HX  95
DESTIN         SUNNY     89  73  59 VRB6      30.00S HX  97
HURLBURT       SUNNY     87  71  57 SW5       29.99F HX  92
CRESTVIEW      SUNNY     91  68  46 NE6       30.02S HX  95
PENSACOLA      MOSUNNY   88  71  57 S10       30.00S HX  94
$$

!ALZ063-066-010000
...South Alabama...

CITY           SKY/WX    TMP DP  RH WIND       PRES   REMARKS
DOTHAN         SUNNY     87  71  58 NE3       30.07R HX  93
OZARK CAIRNS   MOSUNNY   88  70  55 E5        30.03R HX  93
FT RUCKER HELI SUNNY     90  68  48 E3        30.01S HX  94
RUCKER HELI 3  FAIR      90  65  44 N5        30.04S HX  92
RUCKER HELI 2  NOT AVBL
FLORALA APT    SUNNY     89  66  46 CALM      30.04S HX  91
ANDALUSIA      SUNNY     90  72  55 SE3       30.02S HX  97
TROY           PTSUNNY   88  70  55 NE7       30.04S HX  93
EUFALA         FAIR      90  70  51 CALM      30.03S HX  95
MOBILE         MOSUNNY   89  69  51 S9        30.02R HX  93
$$

!GAZ120>161-010000
...Southwest and South Central Georgia...

CITY           SKY/WX    TMP DP  RH WIND       PRES   REMARKS
THOMASVILLE    FAIR      88  70  55 E6        30.04S HX  92
BAINBRIDGE     MOSUNNY   91  70  49 E7        30.02S HX  97
MOODY AFB      SUNNY     87  66  50 NE5       30.03S
VALDOSTA       SUNNY     87  69  54 NE7       30.03S HX  91
MOULTRIE       SUNNY     86  70  58 CALM      30.04S HX  90
BLAKELY        SUNNY     90  70  51 NW3       30.03S HX  95
ALBANY         MOSUNNY   89  68  49 N5        30.05R HX  93
TIFTON         FAIR      84  67  57 CALM      30.05R
FITZGERALD     MOCLDY    85  70  60 CALM      30.07S HX  90
CORDELE        FAIR      89  70  53 NE5       30.05S HX  93
AMERICUS       FAIR      84  68  58 N5        30.07R
HOMERVILLE     FAIR      90  72  55 NE3       30.04R HX  96
$$

!GMZ750-755-770-775-010000
...Coastal and Buoy Obs...

STATION/POSITION TIME  TEMP    WIND        PRES    VSBY  WAVE
                       AIR SEA DIR/SP/G                  HT/PER
                 (UTC) (F)     (DEG/KT/KT) (MB)    (MI)  (FT/S)
KEATON BEACH     2300   87     100/  5/  5 1016.3R
CEDAR KEY        2300   82      80/  5/  6 1016.9R
C TOWER          2300   84     100/ 12/ 12 1016.2R
APALACHICOLA BUO 2250   84 86   80/ 12/ 12 1016.1R         2/ 4
PANAMA CITY BUOY 2250   85 86   60/ 10/ 12 1016.5R         2/ 6
MOBILE BUOY      2250   84 87   90/  6/  8 1016.9F         1/ 5
ORANGE BCH AL BU 2250   86 87  210/  6/  8 1016.0S         1
$$



USA.gov is the U.S. government's official web portal to all federal, state and local government web resources and services.